EA2DK Weather Reports


time (UTC)temp
F
wind
direction
speed
knots
gust
knots
rain 1hr
in
rain 24hr
in
rain mn
in
humidity
%
barometer
mb
20260506163004 60 238 1.7 6.1 0.00 0.00 0.00 57 1017.4
20260506161505 60 243 4.3 7.0 0.00 0.00 0.00 55 1017.4
20260506154503 60 267 4.3 10.4 0.00 0.00 0.00 54 1017.6
20260506150005 59 273 4.3 8.7 0.00 0.00 0.00 58 1017.7
20260506144504 59 223 4.3 8.7 0.00 0.00 0.00 57 1017.7
20260506143005 59 264 2.6 7.8 0.00 0.00 0.00 57 1017.9
20260506141504 58 213 3.5 6.1 0.00 0.00 0.00 58 1017.9
20260506140004 58 272 2.6 7.8 0.00 0.00 0.00 59 1018.1
20260506134504 57 220 1.7 8.7 0.00 0.00 0.00 60 1018.1
20260506131504 57 244 4.3 12.2 0.00 0.00 0.00 61 1018.0
20260506130005 57 281 6.1 12.2 0.00 0.00 0.00 61 1017.8
20260506124504 56 220 6.1 13.0 0.00 0.00 0.00 62 1017.7
20260506123005 56 220 4.3 10.4 0.00 0.00 0.00 62 1017.7
20260506121504 57 202 5.2 13.9 0.00 0.00 0.00 62 1017.7
20260506120005 58 269 7.8 14.8 0.00 0.00 0.00 60 1017.7
20260506114505 58 223 4.3 10.4 0.00 0.00 0.00 59 1017.7
20260506113004 58 199 4.3 10.4 0.00 0.00 0.00 59 1017.7
20260506111504 59 217 2.6 10.4 0.00 0.00 0.00 58 1017.6
20260506110004 59 185 4.3 10.4 0.00 0.00 0.00 57 1017.4
20260506104504 59 234 3.5 10.4 0.00 0.00 0.00 56 1017.4
20260506103004 59 214 6.1 11.3 0.00 0.00 0.00 56 1017.4
20260506101504 58 183 4.3 8.7 0.00 0.00 0.00 58 1017.5
20260506100005 57 210 2.6 10.4 0.00 0.00 0.00 59 1017.5
20260506094504 56 178 7.0 10.4 0.00 0.00 0.00 58 1017.5
20260506093004 56 176 6.1 10.4 0.00 0.00 0.00 59 1017.5
20260506091504 56 210 4.3 11.3 0.00 0.00 0.00 59 1017.5
20260506084504 56 170 2.6 5.2 0.00 0.00 0.00 59 1017.1
20260506083004 55 202 4.3 12.2 0.00 0.00 0.00 59 1017.1
20260506081504 55 185 4.3 8.7 0.00 0.00 0.00 59 1017.1
20260506073004 53 0 0.0 0.0 0.00 0.00 0.00 65 1016.8
20260506071504 53 1 0.0 2.6 0.00 0.00 0.00 65 1016.8
20260506061505 52 172 2.6 5.2 0.00 0.00 0.00 65 1016.5
20260506044504 52 188 4.3 7.0 0.00 0.00 0.00 64 1016.1
20260506043004 52 159 4.3 5.2 0.00 0.00 0.00 65 1016.2
20260506041504 52 187 1.7 2.6 0.00 0.00 0.00 65 1016.1
20260506033005 51 165 0.9 4.3 0.00 0.00 0.00 65 1016.2
20260506031504 51 171 0.0 2.6 0.00 0.00 0.00 65 1016.2
20260506030004 51 171 1.7 2.6 0.00 0.00 0.00 65 1016.2
20260506024504 51 171 1.7 2.6 0.00 0.00 0.00 65 1016.2
20260506023004 51 173 0.9 1.7 0.00 0.00 0.00 65 1016.3
20260506020004 51 150 1.7 2.6 0.00 0.00 0.00 64 1016.3
20260506014504 51 150 2.6 5.2 0.00 0.00 0.00 64 1016.4
20260506011504 51 176 1.7 5.2 0.00 0.00 0.00 65 1016.5
20260506010004 51 181 2.6 5.2 0.00 0.00 0.00 65 1016.5
20260506004505 50 169 1.7 2.6 0.00 0.00 0.00 65 1016.7
20260506003004 50 169 1.7 2.6 0.00 0.00 0.00 65 1017.0
20260506001504 50 195 0.9 2.6 0.00 0.00 0.00 64 1017.1
20260506000004 50 195 1.7 2.6 0.00 0.00 0.00 64 1016.9
20260505234504 51 174 1.7 2.6 0.00 0.00 0.00 64 1017.1
20260505233005 51 173 1.7 2.6 0.00 0.00 0.00 63 1017.2
20260505231505 52 173 1.7 2.6 0.00 0.00 0.00 62 1017.3
20260505230004 52 174 1.7 4.3 0.00 0.00 0.00 62 1017.1
20260505224505 52 167 2.6 4.3 0.00 0.00 0.00 63 1017.0
20260505223005 52 174 2.6 6.1 0.00 0.00 0.00 63 1017.1
20260505221504 52 199 2.6 4.3 0.00 0.00 0.00 63 1017.3
20260505220004 52 192 1.7 2.6 0.00 0.00 0.00 63 1017.4
20260505211504 52 171 1.7 2.6 0.00 0.00 0.00 63 1017.6
20260505210004 53 168 2.6 2.6 0.00 0.00 0.00 60 1017.7
20260505204504 53 169 1.7 2.6 0.00 0.00 0.00 60 1017.5
20260505203004 55 0 0.0 0.0 0.00 0.00 0.00 60 1017.5
20260505201504 55 0 0.0 0.0 0.00 0.00 0.00 60 1017.4
20260505200004 55 0 0.0 7.8 0.00 0.00 0.00 60 1017.4
20260505194503 55 221 7.0 7.8 0.00 0.00 0.00 60 1017.3
20260505193004 55 195 5.2 10.4 0.00 0.00 0.00 60 1017.2
20260505191504 56 0 0.0 2.6 0.00 0.00 0.00 61 1017.2
20260505190004 56 183 2.6 6.1 0.00 0.00 0.00 61 1017.1
20260505184504 56 198 1.7 6.1 0.00 0.00 0.00 62 1016.9
20260505183004 56 187 1.7 4.3 0.00 0.00 0.00 62 1016.9
20260505181504 57 188 2.6 4.3 0.00 0.00 0.00 59 1016.8
20260505180004 57 0 0.0 0.0 0.00 0.00 0.00 59 1016.9
20260505174504 57 0 0.0 0.0 0.00 0.00 0.00 59 1016.8
20260505173005 57 0 0.0 0.0 0.00 0.00 0.00 59 1016.8
20260505171506 57 0 0.0 0.0 0.00 0.00 0.00 59 1016.9
20260505164504 57 192 2.6 5.2 0.00 0.00 0.00 59 1017.1